This is the latest recevied weather packets stored in our database for station/object CA4LJZ-10. If no packets are shown the sender has not sent any weather packets the latest 10 day(s).
| Time | Temp. | Humidity | Pressure | Rain* | Wind** | Luminosity | Snow |
|---|---|---|---|---|---|---|---|
| 1778010381 | 22.22° C | 35% | 950.7 hPa | - | - | - | - |
| 1778009479 | 22.22° C | 35% | 950.9 hPa | - | - | - | - |
| 1778008579 | 22.22° C | 35% | 950.9 hPa | - | - | - | - |
| 1778007678 | 22.78° C | 34% | 950.7 hPa | - | - | - | - |
| 1778006777 | 23.33° C | 33% | 950.7 hPa | - | - | - | - |
| 1778005876 | 23.33° C | 32% | 950.6 hPa | - | - | - | - |
| 1778004975 | 23.33° C | 32% | 950.4 hPa | - | - | - | - |
| 1778004074 | 23.89° C | 32% | 950.4 hPa | - | - | - | - |
| 1778003173 | 23.89° C | 30% | 950.4 hPa | - | - | - | - |
| 1778002272 | 25° C | 29% | 950.3 hPa | - | - | - | - |
| 1778001371 | 25.56° C | 29% | 950.2 hPa | - | - | - | - |
| 1778000471 | 25.56° C | 30% | 950.2 hPa | - | - | - | - |
| 1777999567 | 25° C | 29% | 950.2 hPa | - | - | - | - |
| 1777998664 | 25° C | 30% | 950.2 hPa | - | - | - | - |
| 1777997761 | 25° C | 30% | 950.2 hPa | - | - | - | - |
| 1777996859 | 25.56° C | 30% | 950.3 hPa | - | - | - | - |
| 1777995956 | 24.44° C | 31% | 950.4 hPa | - | - | - | - |
| 1777995055 | 23.89° C | 33% | 950.5 hPa | - | - | - | - |
| 1777994152 | 22.22° C | 35% | 950.4 hPa | - | - | - | - |
| 1777993251 | 21.11° C | 36% | 950.5 hPa | - | - | - | - |
| 1777992350 | 20.56° C | 38% | 950.5 hPa | - | - | - | - |
| 1777991449 | 21.11° C | 40% | 950.6 hPa | - | - | - | - |
| 1777990570 | 19.44° C | 41% | 950.7 hPa | - | - | - | - |
| 1777989668 | 18.33° C | 43% | 950.7 hPa | - | - | - | - |
| 1777988767 | 18.33° C | 41% | 950.8 hPa | - | - | - | - |
* Rain since midnight (hover to see other rain measurements)
** Current wind speed in m/s (hover to see current wind gust speed)